CYVP

Kuujjuaq Airport

ICAO Code CYVP
IATA Code YVP
Name Kuujjuaq Airport
Location Kuujjuaq, Quebec, CA
Elevation 131 Feet / 39.9 Meters
Latitude 58.09500000
Longitude -68.42222222
METAR CYVP 182300Z 32009KT 15SM FEW075 FEW260 25/10 A2982 RMK AC1CI2 AC TR SLP102 DENSITY ALT 1500FT
Extra information Display NOTAMS
Display Charts
Runway Length Width Surface Elevation
07 6000 ft 150 ft ASP 81 ft
13 5001 ft 100 ft GVL 130 ft
25 6000 ft 150 ft ASP 114 ft
31 5001 ft 100 ft GVL 63 ft